Location: Berkeley
(37.8716°N, 122.2727°W)
Time: 01:11:56
(UTC-07:00)

Envisat - Pass Details

Date: 25 February 2019
Orbit: 764 x 766 km, 98.2° (Epoch: 21 March)

Event Time Altitude Azimuth Distance (km) Brightness Sun altitude
Rises 19:23:51 0° 185° (S) 3,217 6.3 -17.6°
Reaches altitude 10° 19:26:16 10° 192° (SSW) 2,295 5.6 -18.1°
Maximum altitude 19:31:01 40° 262° (W) 1,112 4.4 -19.0°
Drops below altitude 10° 19:35:48 10° 332° (NNW) 2,309 5.9 -19.9°
Sets 19:38:15 0° 340° (NNW) 3,239 6.6 -20.4°
